Weather History for South Haven, MI

Change the Weather History Date:

Thursday, March 21, 2013

  Actual Average (KBIV) Record (KBIV)
Temperature  
Mean Temperature 24 °F 38 °F  
Max Temperature 28 °F 47 °F 85 °F (2012)
Min Temperature 20 °F 30 °F 7 °F (1965)
Degree Days  
Heating Degree Days 41 27  
Month to date heating degree days 630  
Since 1 July heating degree days 5130  
Cooling Degree Days 0 0  
Month to date cooling degree days 0  
Year to date cooling degree days 0  
Moisture  
Dew Point 18 °F    
Average Humidity 73    
Maximum Humidity 91    
Minimum Humidity 62    
Precipitation  
Precipitation 0.00 in 0.07 in 0.88 in (2007)
Month to date precipitation 1.59  
Year to date precipitation 5.48  
Sea Level Pressure  
Sea Level Pressure 29.96 in    
Wind  
Wind Speed 10 mph (NW)    
Max Wind Speed 16 mph    
Max Gust Speed 24 mph    
Visibility 7 miles    
Events Snow    
T = Trace of Precipitation, MM = Missing Value Source: NWS Daily Summary

Daily Weather History Graph

Daily Weather History Graph

Search for Another Location

Airport:

Trip Planner

Search our weather history database for the weather conditions in past years. The results will help you decide how hot, cold, wet, or windy it might be!

Date:

Astronomy

Mar. 21, 2013 Rise Set
Actual Time 7:46 AM EDT 7:58 PM EDT
Civil Twilight 7:18 AM EDT 8:26 PM EDT
Nautical Twilight 6:45 AM EDT 8:59 PM EDT
Astronomical Twilight 6:11 AM EDT 9:33 PM EDT
Moon 2:22 PM EDT (3/21) 4:13 AM EDT (3/21)
Length of Visible Light 13h 08m
Length of Day
12h 12m
Waxing Gibbous, 68% of the Moon is Illuminated
Mar 21
Waxing Gibbous
Mar 27
Full
Apr 3
Last Quarter
Apr 10
New
Apr 18
First Quarter

Hourly Weather History & Observations

Time (EDT) Temp. Windchill Dew Point Humidity Pressure Visibility Wind Dir Wind Speed Gust Speed Precip Events Conditions
12:14 AM 21.0 °F 9.9 °F 13.3 °F 72% 29.97 in 10.0 mi NW 10.4 mph 18.4 mph N/A   Overcast
12:35 AM 20.8 °F 9.7 °F 12.4 °F 70% 29.97 in 10.0 mi NW 10.4 mph - N/A   Overcast
12:55 AM 21.2 °F 10.1 °F 12.6 °F 69% 29.96 in 7.0 mi NW 10.4 mph 16.1 mph N/A Snow Light Snow
1:15 AM 20.7 °F 11.0 °F 14.7 °F 78% 29.96 in 7.0 mi NNW 8.1 mph - N/A   Overcast
1:35 AM 20.8 °F 13.2 °F 14.5 °F 77% 29.95 in 3.0 mi NNW 5.8 mph - N/A Snow Light Snow
2:15 AM 21.2 °F 10.9 °F 13.1 °F 71% 29.94 in 10.0 mi NW 9.2 mph 16.1 mph N/A   Scattered Clouds
2:35 AM 21.7 °F 10.8 °F 16.3 °F 80% 29.95 in 10.0 mi NW 10.4 mph 17.3 mph N/A Snow Light Snow
2:54 AM 21.4 °F 10.4 °F 16.7 °F 82% 29.94 in 7.0 mi NW 10.4 mph - N/A Snow Light Snow
3:15 AM 22.1 °F 12.8 °F 19.0 °F 88% 29.94 in 1.5 mi WNW 8.1 mph - N/A Snow Snow
3:35 AM 22.1 °F 17.4 °F 18.1 °F 85% 29.94 in 7.0 mi North 3.5 mph - N/A   Overcast
3:55 AM 22.3 °F 17.6 °F 17.4 °F 82% 29.93 in 1.8 mi NNW 3.5 mph - N/A Snow Light Snow
4:15 AM 22.1 °F - 19.8 °F 91% 29.92 in 1.2 mi Calm Calm - N/A Snow Light Snow
4:35 AM 23.4 °F 13.5 °F 19.6 °F 85% 29.92 in 4.0 mi NNW 9.2 mph - N/A Snow Light Snow
4:55 AM 23.9 °F 16.8 °F 19.8 °F 84% 29.91 in 3.0 mi NNW 5.8 mph - N/A Snow Light Snow
5:15 AM 24.6 °F 11.7 °F 16.7 °F 72% 29.91 in 10.0 mi NNW 16.1 mph 21.9 mph N/A Snow Light Snow
5:35 AM 24.8 °F 12.9 °F 15.3 °F 67% 29.91 in 10.0 mi NNW 13.8 mph 19.6 mph N/A   Overcast
5:55 AM 24.8 °F 14.6 °F 16.5 °F 71% 29.92 in 10.0 mi NNW 10.4 mph - N/A   Overcast
6:15 AM 24.8 °F 14.0 °F 15.1 °F 67% 29.92 in 10.0 mi NNW 11.5 mph 24.2 mph N/A   Overcast
6:35 AM 24.4 °F 11.9 °F 16.3 °F 71% 29.92 in 10.0 mi NNW 15.0 mph 21.9 mph N/A   Overcast
6:54 AM 23.9 °F 13.5 °F 16.0 °F 72% 29.93 in 10.0 mi NW 10.4 mph 17.3 mph N/A   Mostly Cloudy
7:15 AM 24.6 °F 14.4 °F 14.7 °F 66% 29.93 in 10.0 mi NNW 10.4 mph 20.7 mph N/A   Overcast
7:35 AM 24.8 °F 13.4 °F 15.6 °F 68% 29.94 in 10.0 mi NW 12.7 mph 18.4 mph N/A   Overcast
7:55 AM 24.8 °F 13.4 °F 16.7 °F 71% 29.94 in 5.0 mi NW 12.7 mph 19.6 mph N/A Snow Light Snow
8:15 AM 25.0 °F 13.6 °F 16.5 °F 70% 29.94 in 7.0 mi NW 12.7 mph 18.4 mph N/A Snow Light Snow
8:55 AM 25.3 °F 14.1 °F 19.2 °F 78% 29.94 in 3.0 mi NW 12.7 mph 17.3 mph N/A Snow Light Snow
9:15 AM 25.5 °F 14.9 °F 19.6 °F 78% 29.94 in 2.5 mi NW 11.5 mph - N/A Snow Light Snow
9:35 AM 25.5 °F 16.9 °F 20.1 °F 80% 29.94 in 2.5 mi NW 8.1 mph - N/A Snow Light Snow
9:55 AM 26.1 °F 16.2 °F 19.4 °F 76% 29.95 in 5.0 mi NW 10.4 mph - N/A Snow Light Snow
10:15 AM 26.4 °F 17.3 °F 20.1 °F 77% 29.95 in 3.0 mi WNW 9.2 mph - N/A Snow Light Snow
10:35 AM 26.6 °F 17.5 °F 21.0 °F 79% 29.95 in 2.0 mi NW 9.2 mph - N/A Snow Light Snow
10:54 AM 27.1 °F 18.2 °F 20.7 °F 77% 29.95 in 5.0 mi WNW 9.2 mph 16.1 mph N/A Snow Light Snow
11:15 AM 27.1 °F 18.9 °F 20.1 °F 75% 29.95 in 7.0 mi WNW 8.1 mph 17.3 mph N/A Snow Light Snow
11:34 AM 27.3 °F 17.7 °F 20.3 °F 75% 29.96 in 5.0 mi WNW 10.4 mph 16.1 mph N/A Snow Light Snow
11:55 AM 27.0 °F 17.3 °F 21.2 °F 79% 29.97 in 1.8 mi WNW 10.4 mph - N/A Snow Light Snow
12:15 PM 27.3 °F 17.7 °F 22.5 °F 82% 29.97 in 1.8 mi WNW 10.4 mph 18.4 mph N/A Snow Light Snow
12:35 PM 27.0 °F 16.7 °F 23.5 °F 87% 29.98 in 0.8 mi WNW 11.5 mph - N/A Snow Light Snow
12:55 PM 27.1 °F 17.5 °F 23.2 °F 85% 29.98 in 1.0 mi West 10.4 mph 16.1 mph N/A Snow Light Snow
1:15 PM 28.2 °F 17.7 °F 22.5 °F 79% 29.98 in 5.0 mi West 12.7 mph 19.6 mph N/A Snow Light Snow
1:34 PM 27.9 °F 16.3 °F 22.3 °F 80% 29.99 in 1.5 mi West 15.0 mph 23.0 mph N/A Snow Light Snow
1:54 PM 27.3 °F 16.6 °F 21.7 °F 80% 29.99 in 1.0 mi WNW 12.7 mph 17.3 mph N/A Snow Light Snow
2:14 PM 27.5 °F 16.8 °F 22.8 °F 83% 29.98 in 1.2 mi West 12.7 mph 19.6 mph N/A Snow Light Snow
2:34 PM 27.3 °F 16.6 °F 22.5 °F 82% 29.98 in 1.2 mi West 12.7 mph 23.0 mph N/A Snow Light Snow
2:55 PM 28.6 °F 18.7 °F 21.6 °F 75% 29.98 in 4.0 mi WNW 11.5 mph 19.6 mph N/A Snow Light Snow
3:15 PM 28.2 °F 17.7 °F 21.0 °F 74% 29.98 in 10.0 mi West 12.7 mph 23.0 mph N/A Snow Light Snow
3:35 PM 28.9 °F 18.2 °F 21.0 °F 72% 29.97 in 10.0 mi West 13.8 mph 23.0 mph N/A   Overcast
3:55 PM 28.9 °F 18.2 °F 19.8 °F 69% 29.97 in 10.0 mi WNW 13.8 mph 21.9 mph N/A   Overcast
4:15 PM 28.4 °F 17.5 °F 19.2 °F 69% 29.98 in 10.0 mi WNW 13.8 mph 19.6 mph N/A   Overcast
4:34 PM 28.0 °F 18.1 °F 19.4 °F 70% 29.98 in 10.0 mi West 11.5 mph - N/A   Overcast
4:55 PM 28.0 °F 17.5 °F 18.1 °F 66% 29.98 in 10.0 mi WNW 12.7 mph 16.1 mph N/A   Overcast
5:15 PM 28.4 °F 18.5 °F 17.8 °F 64% 29.98 in 10.0 mi West 11.5 mph - N/A   Overcast
5:35 PM 28.0 °F 20.0 °F 18.1 °F 66% 29.99 in 10.0 mi WNW 8.1 mph - N/A   Overcast
5:54 PM 27.7 °F 18.2 °F 17.6 °F 66% 29.98 in 10.0 mi WNW 10.4 mph 16.1 mph N/A   Overcast
6:15 PM 27.5 °F 18.0 °F 17.1 °F 65% 29.98 in 10.0 mi West 10.4 mph 16.1 mph N/A   Overcast
6:35 PM 27.5 °F 18.6 °F 18.1 °F 68% 29.98 in 10.0 mi WNW 9.2 mph - N/A   Overcast
6:55 PM 27.5 °F 19.3 °F 17.2 °F 65% 29.98 in 10.0 mi WNW 8.1 mph - N/A   Overcast
7:15 PM 27.5 °F 18.6 °F 17.1 °F 65% 29.99 in 10.0 mi NW 9.2 mph - N/A   Overcast
7:35 PM 27.5 °F 18.6 °F 16.3 °F 63% 29.98 in 10.0 mi NW 9.2 mph - N/A   Overcast
7:55 PM 27.5 °F 20.2 °F 16.0 °F 62% 29.98 in 10.0 mi NW 6.9 mph - N/A   Overcast
8:15 PM 27.3 °F 18.4 °F 16.0 °F 62% 29.98 in 10.0 mi NW 9.2 mph - N/A   Overcast
8:35 PM 27.3 °F 19.9 °F 16.0 °F 62% 29.99 in 10.0 mi NW 6.9 mph - N/A   Overcast
8:55 PM 27.5 °F 18.0 °F 16.5 °F 63% 29.99 in 10.0 mi NNW 10.4 mph 16.1 mph N/A   Overcast
9:15 PM 27.5 °F 18.6 °F 16.7 °F 64% 29.99 in 10.0 mi NNW 9.2 mph - N/A   Overcast
9:35 PM 27.5 °F 19.3 °F 16.5 °F 63% 29.99 in 10.0 mi NNW 8.1 mph - N/A   Overcast
9:55 PM 27.1 °F 18.2 °F 16.3 °F 64% 29.98 in 10.0 mi NNW 9.2 mph - N/A   Overcast
10:15 PM 27.1 °F 20.7 °F 16.3 °F 64% 29.99 in 10.0 mi NW 5.8 mph - N/A   Mostly Cloudy
10:35 PM 27.5 °F 21.1 °F 17.2 °F 65% 29.99 in 10.0 mi NW 5.8 mph - N/A   Overcast
10:54 PM 27.9 °F 22.6 °F 17.6 °F 65% 29.99 in 10.0 mi NW 4.6 mph - N/A   Overcast
11:15 PM 27.9 °F 19.8 °F 17.1 °F 64% 29.99 in 10.0 mi NW 8.1 mph - N/A   Overcast
11:35 PM 27.9 °F 19.1 °F 16.7 °F 63% 29.99 in 10.0 mi NW 9.2 mph - N/A   Overcast
11:55 PM 28.2 °F 19.5 °F 17.4 °F 64% 30.00 in 10.0 mi NW 9.2 mph - N/A   Overcast